Regional Weather Roundup
Issued by NWS Newport/Morehead, NC

Current Version | Previous Version | Graphics & Text | Print | Product List | Glossary Off
Versions: 1 2 3 4 5 6 7 8 9 10 11 12 13 14 15 16 17 18 19 20 21 22 23 24 25 26 27 28 29 30 31 32 33 34 35 36 37 38 39 40 41 42 43 44 45 46 47 48 49 50
000 ASUS42 KMHX 282010 RWRMHX WEATHER ROUNDUP FOR EASTERN NORTH CAROLINA NATIONAL WEATHER SERVICE NEWPORT/MOREHEAD CITY NC 300 PM EST WED JAN 28 2015 NOTE: "FAIR" INDICATES FEW OR NO CLOUDS BELOW 12,000 FEET WITH NO SIGNIFICANT WEATHER AND/OR OBSTRUCTIONS TO VISIBILITY NCZ015>017-031-032-045>047-102-103-282100- NORTH COAST CITY SKY/WX TMP DP RH WIND PRES REMARKS EDENTON SUNNY 42 12 29 N12G17 30.20S ELIZABETH CITY SUNNY 40 10 29 N16 30.19S KITTY HAWK CLEAR 38 12 34 N12G20 30.16R MANTEO SUNNY 37 14 38 N15 30.18R $$ NCZ045>047-081-094-103-104-282100- CENTRAL COAST CITY SKY/WX TMP DP RH WIND PRES REMARKS FRISCO SUNNY 40 22 48 NW9 30.17R SWANQUARTER NOT AVBL $$ NCZ095-097-098-100-101-282100- SOUTHERN COAST CITY SKY/WX TMP DP RH WIND PRES REMARKS BEAUFORT SUNNY 44 12 27 N12G24 30.18R CEDAR ISLAND NOT AVBL JACKSONVILLE SUNNY 44 13 28 N12 30.19S PINEY ISLAND N/A N/A N/A N/A MISG 30.18R WILMINGTON SUNNY 47 18 31 NW14 30.20R $$ NCZ011>013-027>030-043-044-078>080-089-090>093-098-282100- COASTAL PLAIN CITY SKY/WX TMP DP RH WIND PRES REMARKS AHOSKIE SUNNY 41 7 25 N7 30.22R CLINTON SUNNY 44 15 31 NW7 30.22R ELIZABETHTOWN SUNNY 46 12 25 N3 30.21S GOLDSBORO SUNNY 44 13 28 N10 30.19F GREENVILLE SUNNY 43 12 28 N9 30.22S HAVELOCK SUNNY 45 10 24 N13 30.19S KENANSVILLE SUNNY 43 11 27 N8G16 30.21F KINSTON SUNNY 45 14 29 N13 30.21S NEW BERN SUNNY 46 10 23 N10 30.20S RICHLANDS SUNNY 43 12 28 N10G16 30.21R ROCKY MOUNT SUNNY 45 8 22 NW9 30.21F WASHINGTON SUNNY 42 11 29 NW10G20 30.20S WHITEVILLE SUNNY 45 13 26 N5 30.21S $$ AMZ130-135-150-152-154-156-158-170-250-252-270-ANZ085-086-088-633-658-670-282100- MARINE OBSERVATIONS STATION/POSITION TIME TEMP WIND PRES WAVE SWELL AIR SEA DIR/SP/G HT/PER HT/PER (UTC) (F) (DEG/KT/KT) (MB) (FT/S) (FT/S) CHESAPEAKE LIGHT 1900 33 330/ 25/ 26 1021.8 64 E VA BEACH 2000 36 51 330/ 23/ 27 1019.5 10/13 7/13 DUCK 2000 36 42 320/ 16/ 20 1020.7 2 E DUCK 2000 42 N/A 6/13 3/13 10 NE DUCK 2000 46 N/A 8/12 3/12 OREGON INLET 2000 37 43 340/ 12/ 16 1021.4 13E OREGON INLT 2000 45 N/A 9/11 5/11 HATTERAS CG 2000 38 45 340/ 16/ 19 1021.8 DIAMOND BUOY 2000 39 340/ 21/ 25 1020.5 8/12 5/12 17 S OCRACOKE NOT AVBL CAPE LOOKOUT 1900 41 330/ 12/ 15 1021.4 BEAUFORT LAB 2000 43 47 360/ 11/ 15 1020.7 27 SE WRIGHTSVLE NOT AVBL 5 SE WRIGHTSVLE 1900 44 53 360/ 12/ 16 1022.1 225 S CAPE HAT 1932 57 72 320/ 21/ 25 1017.1 10/ 8 5/12 41 SE CHARLESTON 2000 43 66 360/ 14/ 19 1022.8 5/ 6 2/14 $$

USA.gov is the U.S. government's official web portal to all federal, state and local government web resources and services.